This is the latest recevied weather packets stored in our database for station/object K8MUD. If no packets are shown the sender has not sent any weather packets the latest 1 day(s).
| Time | Temp. | Humidity | Pressure | Rain* | Wind** | Luminosity | Snow |
|---|---|---|---|---|---|---|---|
| 1778082739 | 10.56° C | 57% | 1012 hPa | 0 mm | - | - | - |
| 1778082439 | 10.56° C | 56% | 1012 hPa | 0 mm | - | - | - |
| 1778082139 | 10.56° C | 59% | 1011.9 hPa | 0 mm | - | - | - |
| 1778080338 | 9.44° C | 60% | 1011.8 hPa | 0 mm | - | - | - |
| 1778079738 | 9.44° C | 61% | 1011.7 hPa | 0 mm | - | - | - |
| 1778079438 | 9.44° C | 60% | 1011.5 hPa | 0 mm | - | - | - |
| 1778079138 | 9.44° C | 62% | 1011.7 hPa | 0 mm | - | - | - |
| 1778078838 | 9.44° C | 62% | 1011.7 hPa | 0 mm | - | - | - |
| 1778076137 | 8.33° C | 65% | 1011.3 hPa | 0 mm | - | - | - |
| 1778075837 | 8.33° C | 64% | 1011.4 hPa | 0 mm | - | - | - |
| 1778075537 | 8.33° C | 64% | 1011.2 hPa | 0 mm | - | - | - |
| 1778075237 | 8.33° C | 65% | 1011.3 hPa | 0 mm | - | - | - |
| 1778072536 | 7.78° C | 69% | 1010.4 hPa | 0 mm | - | - | - |
| 1778071936 | 7.22° C | 70% | 1010.3 hPa | 0 mm | - | - | - |
| 1778071636 | 7.22° C | 69% | 1010.2 hPa | 0 mm | - | - | - |
| 1778071336 | 7.22° C | 68% | 1010.2 hPa | 0 mm | - | - | - |
| 1778069535 | 7.22° C | 68% | 1010.1 hPa | 0 mm | - | - | - |
| 1778068635 | 7.22° C | 68% | 1009.7 hPa | 0 mm | - | - | - |
| 1778068335 | 7.22° C | 68% | 1009.7 hPa | 0 mm | - | - | - |
| 1778068035 | 7.22° C | 67% | 1009.6 hPa | 0 mm | - | - | - |
| 1778067735 | 7.22° C | 68% | 1009.6 hPa | 0 mm | - | - | - |
| 1778067435 | 7.22° C | 68% | 1009.4 hPa | 0 mm | - | - | - |
| 1778067135 | 7.22° C | 68% | 1009.4 hPa | 0 mm | - | - | - |
| 1778065634 | 7.78° C | 70% | 1009.2 hPa | 0 mm | - | - | - |
| 1778064734 | 7.78° C | 69% | 1008.7 hPa | 0 mm | - | - | - |
* Rain latest hour (hover to see other rain measurements)
** Current wind speed in m/s (hover to see current wind gust speed)